Weather History for Rochester, NH

Change the Weather History Date:

Friday, January 31, 2014

  Actual Average (KSFM) Record (KSFM)
Temperature  
Mean Temperature 27 °F -  
Max Temperature 37 °F 30 °F 57 °F (2013)
Min Temperature 17 °F 10 °F -16 °F (1999)
Degree Days  
Heating Degree Days 38    
Moisture  
Dew Point 13 °F    
Average Humidity 58    
Maximum Humidity 77    
Minimum Humidity 33    
Precipitation  
Precipitation 0.00 in - - ()
Sea Level Pressure  
Sea Level Pressure 30.05 in    
Wind  
Wind Speed 3 mph (South)    
Max Wind Speed 8 mph    
Max Gust Speed -    
Visibility 10 miles    
Events      
Averages and records for this station are not official NWS values.
T = Trace of Precipitation, MM = Missing Value Source: NWS Daily Summary

Daily Weather History Graph

Daily Weather History Graph

Search for Another Location

Airport:

Trip Planner

Search our weather history database for the weather conditions in past years. The results will help you decide how hot, cold, wet, or windy it might be!

Date:

Astronomy

Jan. 31, 2014 Rise Set
Actual Time 7:00 AM EST 4:54 PM EST
Civil Twilight 6:30 AM EST 5:24 PM EST
Nautical Twilight 5:55 AM EST 5:58 PM EST
Astronomical Twilight 5:22 AM EST 6:32 PM EST
Moon 7:05 AM EST 6:18 PM EST
Length of Visible Light 10h 54m
Length of Day
9h 53m
New Moon, 1% of the Moon is Illuminated
Jan 31
New Moon
Feb 6
First Quarter
Feb 14
Full
Feb 22
Last Quarter
Mar 1
New

Hourly Weather History & Observations

Time (EST) Temp. Windchill Dew Point Humidity Pressure Visibility Wind Dir Wind Speed Gust Speed Precip Events Conditions
12:51 AM 17.1 °F 6.6 °F 6.1 °F 62% 30.12 in 10.0 mi South 8.1 mph - N/A   Clear
1:51 AM 17.1 °F - 7.0 °F 65% 30.12 in 10.0 mi Calm Calm - N/A   Clear
2:51 AM 17.1 °F - 8.1 °F 68% 30.08 in 10.0 mi Calm Calm - N/A   Mostly Cloudy
3:51 AM 18.0 °F - 9.0 °F 68% 30.07 in 10.0 mi Calm Calm - N/A   Mostly Cloudy
4:47 AM 19.4 °F - 10.4 °F 68% 30.03 in 10.0 mi Calm Calm - N/A   Scattered Clouds
4:51 AM 19.0 °F - 10.9 °F 71% 30.04 in 10.0 mi Calm Calm - N/A   Scattered Clouds
5:02 AM 19.0 °F 12.3 °F 10.9 °F 71% 30.02 in 10.0 mi SSE 4.6 mph - N/A   Mostly Cloudy
5:36 AM 19.0 °F 12.3 °F 12.0 °F 74% 30.01 in 10.0 mi South 4.6 mph - N/A   Scattered Clouds
5:51 AM 19.0 °F 13.9 °F 12.0 °F 74% 30.01 in 10.0 mi SSE 3.5 mph - N/A   Clear
6:51 AM 19.9 °F - 12.9 °F 74% 30.02 in 10.0 mi Calm Calm - N/A   Mostly Cloudy
7:51 AM 19.0 °F - 12.9 °F 77% 30.02 in 10.0 mi Calm Calm - N/A   Overcast
8:51 AM 21.9 °F 15.7 °F 15.1 °F 75% 30.02 in 10.0 mi South 4.6 mph - N/A   Clear
9:51 AM 26.1 °F 20.5 °F 16.0 °F 66% 30.03 in 10.0 mi Variable 4.6 mph - N/A   Clear
10:51 AM 28.9 °F - 12.9 °F 51% 30.04 in 10.0 mi Calm Calm - N/A   Clear
11:51 AM 34.0 °F 28.8 °F 9.0 °F 35% 30.00 in - Variable 5.8 mph - N/A   Clear
12:51 PM 36.0 °F - 9.0 °F 33% 29.99 in 10.0 mi North - - N/A   Unknown
1:51 PM 36.0 °F - 10.9 °F 36% 29.98 in 10.0 mi North - - N/A   Clear
2:51 PM 37.0 °F 32.4 °F 12.9 °F 37% 30.01 in 10.0 mi Variable 5.8 mph - N/A   Clear
3:51 PM 37.0 °F 32.4 °F 14.0 °F 39% 30.01 in 10.0 mi West 5.8 mph - N/A   Mostly Cloudy
4:51 PM 37.0 °F 34.5 °F 15.1 °F 41% 30.02 in 10.0 mi WSW 3.5 mph - N/A   Overcast
5:51 PM 36.0 °F 32.1 °F 15.1 °F 43% 30.04 in 10.0 mi Variable 4.6 mph - N/A   Clear
6:51 PM 34.0 °F 31.0 °F 16.0 °F 48% 30.09 in 10.0 mi Variable 3.5 mph - N/A   Scattered Clouds
7:51 PM 30.9 °F - 16.0 °F 54% 30.11 in 10.0 mi Calm Calm - N/A   Clear
8:51 PM 30.0 °F - 16.0 °F 56% 30.12 in 10.0 mi Calm Calm - N/A   Clear
9:51 PM 28.9 °F - 16.0 °F 58% 30.15 in 10.0 mi Calm Calm - N/A   Clear
10:51 PM 30.0 °F 26.5 °F 16.0 °F 56% 30.16 in 10.0 mi Variable 3.5 mph - N/A   Clear
11:51 PM 30.9 °F - 16.0 °F 54% 30.15 in 10.0 mi Calm Calm - N/A   Clear